Location: Newark
(45.1381°N, 84.1621°W)
Time: 06:09:06
(UTC+00:00)

Envisat - Visible Passes

Search period start: 09 December 2019 00:00
Search period end: 19 December 2019 00:00
Orbit: 764 x 766 km, 98.1° (Epoch: 08 December)

Date Brightness Start Highest point End Pass type
(mag) Time Alt. Az. Time Alt. Az. Time Alt. Az.
09 Dec 4.4 11:59:24 10° NNE 12:04:16 43° E 12:09:05 10° S visible
09 Dec 2.9 23:15:46 10° SSE 23:20:48 69° ENE 23:25:52 10° N visible
10 Dec 5.8 00:57:19 10° SW 01:00:20 16° W 01:03:20 10° NW visible
10 Dec 5.7 11:23:25 10° NE 11:27:12 21° E 11:30:57 10° SE visible
10 Dec 3.6 22:39:41 10° SE 22:44:12 33° ENE 22:48:44 10° N visible
11 Dec 4.7 00:18:39 10° SSW 00:23:12 33° W 00:27:47 10° NNW visible
11 Dec 3.3 12:24:43 10° NNE 12:29:49 74° ESE 12:34:53 10° S visible
11 Dec 3.3 23:41:14 10° S 23:46:17 71° WSW 23:51:22 10° NNW visible
12 Dec 4.8 11:48:16 10° NNE 11:52:55 35° E 11:57:31 10° SSE visible
12 Dec 3.0 23:04:36 10° SSE 23:09:33 56° ENE 23:14:31 10° N visible
13 Dec 5.5 00:45:17 10° SW 00:48:55 20° W 00:52:35 10° NW visible
13 Dec 6.0 11:12:37 10° NE 11:15:48 17° E 11:18:58 10° SE visible
13 Dec 3.9 22:28:47 10° ESE 22:33:01 27° ENE 22:37:16 10° N visible
14 Dec 4.3 00:07:05 10° SSW 00:11:51 41° W 00:16:40 10° NNW visible
14 Dec 3.7 12:13:29 10° NNE 12:18:32 59° E 12:23:31 10° S visible
14 Dec 3.0 23:29:54 10° SSE 23:34:59 87° WSW 23:40:07 10° NNW visible
15 Dec 6.2 01:13:19 10° WSW 01:14:45 11° W 01:16:11 10° WNW visible
15 Dec 5.2 11:37:12 10° NE 11:41:33 28° E 11:45:52 10° SSE visible
15 Dec 3.3 22:53:31 10° SE 22:58:19 45° ENE 23:03:09 10° N visible
16 Dec 5.2 00:33:26 10° SSW 00:37:32 24° W 00:41:40 10° NW visible
16 Dec 6.1 11:02:03 10° ENE 11:04:23 13° E 11:06:41 10° ESE visible
16 Dec 3.8 23:55:36 10° S 00:00:31 51° W 00:05:30 10° NNW visible
17 Dec 4.2 12:02:17 10° NNE 12:07:12 47° E 12:12:05 10° S visible
17 Dec 2.9 23:18:40 10° SSE 23:23:43 76° ENE 23:28:48 10° N visible
18 Dec 5.9 01:00:38 10° WSW 01:03:19 14° W 01:06:00 10° NW visible
18 Dec 5.6 11:26:13 10° NE 11:30:10 22° E 11:34:06 10° SE visible
18 Dec 3.5 22:42:30 10° SE 22:47:06 36° ENE 22:51:44 10° N visible
